TimeEDT,TemperatureF,Dew PointF,Humidity,Sea Level PressureIn,VisibilityMPH,Wind Direction,Wind SpeedMPH,Gust SpeedMPH,PrecipitationIn,Events,Conditions,WindDirDegrees,DateUTC
12:54 AM,55.9,52.0,87,30.09,10.0,South,5.8,-,N/A,,Clear,170,2012-10-05 04:54:00
1:54 AM,55.9,52.0,87,30.09,10.0,SSE,6.9,-,N/A,,Clear,160,2012-10-05 05:54:00
2:54 AM,55.0,51.1,86,30.09,10.0,SSE,5.8,-,N/A,,Clear,160,2012-10-05 06:54:00
3:54 AM,54.0,51.1,90,30.08,10.0,SSE,6.9,-,N/A,,Clear,150,2012-10-05 07:54:00
4:54 AM,55.0,51.1,86,30.07,10.0,SE,9.2,-,N/A,,Clear,130,2012-10-05 08:54:00
5:54 AM,55.9,51.1,84,30.06,10.0,SE,10.4,-,N/A,,Mostly Cloudy,140,2012-10-05 09:54:00
6:54 AM,55.0,51.1,86,30.05,10.0,SSE,6.9,-,N/A,,Clear,160,2012-10-05 10:54:00
7:54 AM,57.0,52.0,83,30.06,10.0,South,4.6,-,N/A,,Clear,170,2012-10-05 11:54:00
8:54 AM,61.0,55.0,81,30.06,10.0,SE,6.9,-,N/A,,Clear,130,2012-10-05 12:54:00
9:54 AM,66.0,55.9,70,30.04,10.0,East,8.1,-,N/A,,Partly Cloudy,90,2012-10-05 13:54:00
10:54 AM,73.0,57.0,57,30.03,10.0,Variable,6.9,-,N/A,,Mostly Cloudy,0,2012-10-05 14:54:00
11:54 AM,72.0,57.0,59,30.02,10.0,West,4.6,-,N/A,,Mostly Cloudy,280,2012-10-05 15:54:00
12:54 PM,73.9,57.0,55,30.00,10.0,Variable,6.9,-,N/A,,Mostly Cloudy,0,2012-10-05 16:54:00
1:54 PM,72.0,57.0,59,29.99,10.0,WNW,4.6,-,N/A,,Overcast,290,2012-10-05 17:54:00
2:54 PM,72.0,55.9,57,29.99,10.0,WNW,4.6,-,N/A,,Overcast,300,2012-10-05 18:54:00
3:54 PM,72.0,55.9,57,29.98,10.0,Variable,3.5,-,N/A,,Overcast,0,2012-10-05 19:54:00
4:54 PM,72.0,55.0,55,29.97,10.0,Calm,Calm,-,N/A,,Overcast,0,2012-10-05 20:54:00
5:54 PM,69.1,55.0,61,29.97,10.0,WNW,3.5,-,N/A,,Overcast,290,2012-10-05 21:54:00
6:54 PM,64.9,57.9,78,29.96,10.0,Calm,Calm,-,N/A,,Overcast,0,2012-10-05 22:54:00
7:54 PM,64.0,59.0,84,29.96,10.0,Calm,Calm,-,N/A,,Overcast,0,2012-10-05 23:54:00
8:54 PM,64.0,59.0,84,29.94,10.0,Calm,Calm,-,N/A,,Overcast,0,2012-10-06 00:54:00
9:54 PM,64.0,57.0,78,29.93,10.0,Calm,Calm,-,N/A,,Overcast,0,2012-10-06 01:54:00
10:54 PM,62.1,59.0,90,29.91,8.0,NNW,6.9,-,0.00,Rain,Light Rain,340,2012-10-06 02:54:00
11:33 PM,59.0,57.2,94,29.90,5.0,NW,13.8,-,0.04,Rain,Rain,320,2012-10-06 03:33:00
11:40 PM,57.2,55.4,94,29.90,7.0,NNW,13.8,-,0.05,Rain,Light Rain,330,2012-10-06 03:40:00
11:49 PM,57.2,55.4,94,29.89,10.0,NNW,10.4,-,0.05,Rain,Light Rain,340,2012-10-06 03:49:00
11:54 PM,57.9,55.9,93,29.91,9.0,NNW,11.5,-,0.05,Rain,Light Rain,340,2012-10-06 03:54:00